Erie, PA

7:56 PM EST on December 07, 2016 (GMT -0500)
Erie International

Weather History for KERI - August, 2013

Change the Weather History Date:

Saturday, August 3, 2013

  Actual Average Record
Temperature  
Mean Temperature 68 °F 72 °F  
Max Temperature 74 °F 80 °F 93 °F (1944)
Min Temperature 61 °F 64 °F 49 °F (1956)
Degree Days  
Heating Degree Days 0 0  
Month to date heating degree days 0 0  
Since 1 June heating degree days 71 68  
Since 1 July heating degree days 3 7  
Cooling Degree Days 3 7  
Month to date cooling degree days 13 21  
Year to date cooling degree days 463 396  
Since 1 June cooling degree days 378 357  
Growing Degree Days 18 (Base 50)    
Moisture  
Dew Point 59 °F    
Average Humidity 66    
Maximum Humidity 84    
Minimum Humidity 47    
Precipitation  
Precipitation 0.51 in 0.12 in 2.66 in (1964)
Month to date precipitation 0.72 0.36  
Year to date precipitation 30.85 22.72  
Snow  
Snow 0.00 in 0.00 in - ()
Month to date snowfall 0.0 0.0  
Since 1 June snowfall 0.0 0.0  
Since 1 July snowfall 0.0 0.0  
Snow Depth 0.00 in    
Sea Level Pressure  
Sea Level Pressure 29.94 in    
Wind  
Wind Speed 7 mph (NW)    
Max Wind Speed 13 mph    
Max Gust Speed 16 mph    
Visibility 10 miles    
Events Rain    
T = Trace of Precipitation, MM = Missing Value Source: NWS Daily Summary

Daily Weather History Graph

Daily Weather History Graph

Search for Another Location

Airport or City:

Trip Planner

Search our weather history database for the weather conditions in past years. The results will help you decide how hot, cold, wet, or windy it might be!

Date:

Astronomy

Aug. 03, 2013 Rise Set
Actual Time 6:16 AM EDT 8:36 PM EDT
Civil Twilight 5:44 AM EDT 9:08 PM EDT
Nautical Twilight 5:06 AM EDT 9:46 PM EDT
Astronomical Twilight 4:22 AM EDT 10:29 PM EDT
Moon 3:23 AM EDT (8/3) 6:18 PM EDT (8/3)
Length of Visible Light 15h 23m
Length of Day
14h 20m
Waning Crescent, 9% of the Moon is Illuminated
Aug 3
Waning Crescent
Aug 6
New
Aug 14
First Quarter
Aug 20
Full
Aug 28
Last Quarter

Hourly Weather History & Observations

Time (EDT) Temp. Dew Point Humidity Pressure Visibility Wind Dir Wind Speed Gust Speed Precip Events Conditions
12:51 AM 69.1 °F 62.1 °F 78% 29.87 in 10.0 mi SW 10.4 mph - 0.00 in   Mostly Cloudy
1:15 AM 68.0 °F 62.6 °F 83% 29.89 in 1.5 mi Variable 4.6 mph - 0.00 in Rain Heavy Rain
1:25 AM 68.0 °F 64.4 °F 88% 29.89 in 3.0 mi WSW 8.1 mph - 0.18 in Rain Light Rain
1:51 AM 70.0 °F 64.9 °F 84% 29.88 in 10.0 mi West 9.2 mph - 0.18 in   Mostly Cloudy
2:51 AM 70.0 °F 63.0 °F 78% 29.89 in 10.0 mi West 6.9 mph - N/A   Mostly Cloudy
3:42 AM 69.8 °F 64.4 °F 83% 29.89 in 10.0 mi WNW 8.1 mph - N/A   Scattered Clouds
3:51 AM 70.0 °F 64.0 °F 81% 29.88 in 10.0 mi WNW 6.9 mph - N/A   Scattered Clouds
3:59 AM 69.8 °F 62.6 °F 78% 29.90 in 10.0 mi NW 6.9 mph - N/A   Mostly Cloudy
4:51 AM 69.1 °F 63.0 °F 81% 29.90 in 10.0 mi NW 5.8 mph - N/A   Overcast
5:20 AM 69.8 °F 62.6 °F 78% 29.92 in 10.0 mi NW 8.1 mph - N/A   Overcast
5:51 AM 69.1 °F 63.0 °F 81% 29.91 in 10.0 mi NW 5.8 mph - N/A   Overcast
6:36 AM 68.0 °F 62.6 °F 83% 29.93 in 10.0 mi North 5.8 mph - N/A   Overcast
6:51 AM 68.0 °F 62.1 °F 81% 29.93 in 10.0 mi North 5.8 mph - N/A   Overcast
7:00 AM 68.0 °F 62.6 °F 83% 29.94 in 10.0 mi North 6.9 mph - N/A   Overcast
7:51 AM 68.0 °F 61.0 °F 78% 29.94 in 10.0 mi North 4.6 mph - N/A   Overcast
8:21 AM 68.0 °F 60.8 °F 78% 29.96 in 10.0 mi North 5.8 mph - N/A   Overcast
8:51 AM 69.1 °F 60.1 °F 73% 29.95 in 10.0 mi North 6.9 mph - N/A   Partly Cloudy
9:51 AM 70.0 °F 57.0 °F 63% 29.96 in 10.0 mi NNW 5.8 mph - N/A   Clear
10:51 AM 71.1 °F 57.0 °F 61% 29.96 in 10.0 mi North 6.9 mph - N/A   Clear
11:51 AM 72.0 °F 51.1 °F 48% 29.97 in 10.0 mi North 8.1 mph - N/A   Clear
12:51 PM 72.0 °F 54.0 °F 53% 29.98 in 10.0 mi Variable 5.8 mph - N/A   Clear
1:51 PM 73.0 °F 55.0 °F 53% 29.98 in 10.0 mi NW 9.2 mph - N/A   Clear
2:51 PM 73.0 °F 55.9 °F 55% 29.98 in 10.0 mi West 9.2 mph - N/A   Clear
3:51 PM 73.0 °F 57.0 °F 57% 29.98 in 10.0 mi WNW 8.1 mph - N/A   Clear
4:51 PM 73.0 °F 57.0 °F 57% 29.97 in 10.0 mi West 10.4 mph - N/A   Clear
5:51 PM 73.0 °F 57.0 °F 57% 29.97 in 10.0 mi West 9.2 mph - N/A   Clear
6:51 PM 72.0 °F 55.0 °F 55% 29.98 in 10.0 mi WNW 8.1 mph - N/A   Clear
7:51 PM 71.1 °F 57.0 °F 61% 29.97 in 10.0 mi West 5.8 mph - N/A   Mostly Cloudy
8:51 PM 70.0 °F 48.9 °F 47% 29.97 in 10.0 mi WNW 4.6 mph - N/A   Clear
9:51 PM 70.0 °F 50.0 °F 49% 29.99 in 10.0 mi WNW 5.8 mph - N/A   Scattered Clouds
10:51 PM 64.9 °F 57.0 °F 75% 29.99 in 10.0 mi South 4.6 mph - N/A   Overcast
11:51 PM 66.0 °F 57.0 °F 73% 29.99 in 8.0 mi Calm Calm - 0.00 in Rain Light Rain